Geostationary
NORAD ID: 30794
Int'l Code: 2007-007B
Perigee: 35,780.0 km
Apogee: 35,807.3 km
Inclination: 0.1 °
Period: 1,436.1 minutes
Semi major axis: 42164 km
Launch date: March 11, 2007
Source: United Kingdom (UK)
Comments: Skynet 5A is a geostationary British military communications craft. The 4.7 tonne craft is reported to be well-hardened against impacts and is capable of repelling jamming attacks. It will be parked at 1.0° W longitude.
Two Line Element Set (TLE):
1 30794U 07007B 13145.28175105 .00000036 00000-0 00000+0 0 595
2 30794 000.0696 357.0741 0003241 073.0511 280.3233 01.00272191 22907
Source: AFSPC
NASA's NSSDC Master Catalog entry for SKYNET 5A